User: anonymous   Login
Location: Unspecified
(0.0000°N, 0.0000°E)
Time: 04:13:29
(UTC+00:00)
Language:

OBJECT A - Orbit

View from above orbital plane
View from above orbital plane
View from above satellite
View from above satellite

Ground track
Ground track

The orbit is defined by the following mean orbital elements,

1 56153U          26145.42357578 +.00000000 +00000-0 +13655-3 0 00005
2 56153  97.5041 332.8945 0002050  84.7265 275.4200 15.14303588    09
Epoch (UTC): 25 May 2026 10:09:56
Eccentricity: 0.0002050
inclination: 97.5041°
perigee height: 522 km
apogee height: 525 km
right ascension of ascending node: 332.8945°
argument of perigee: 84.7265°
revolutions per day: 15.14303588
mean anomaly at epoch: 275.4200°

The dashed part of the orbit path shows where the satellite is in the earth's shadow,  

DLR